Location: Gwatt
(46.7204°N, 7.6223°E)
Time: 02:55:50
(UTC+00:00)

Courier 1B Rocket - Pass Details

Date: 23 January 2021
Orbit: 920 x 1202 km, 28.3° (Epoch: 05 March)

Event Time Altitude Azimuth Distance (km) Brightness Sun altitude
Rises 06:44:33 0° 217° (SW) 3,751 7.9 -3.8°
Reaches altitude 10° 06:48:47 10° 193° (SSW) 2,867 7.6 -3.1°
Maximum altitude 06:51:59 14° 165° (SSE) 2,655 7.9 -2.6°
Drops below altitude 10° 06:55:18 10° 138° (SE) 2,967 9.0 -2.1°
Sets 06:59:49 0° 114° (ESE) 3,988 11.7 -1.4°
